#timestamp,LO_Frequency,Hit,StdDev 
1653904815.8,286046983.8,P
1653904835.6,286046980.1,P
1653904855.4,286046979.2,Y
1653904875.3,286047001.1,P
1653904895.1,286047006.2,N
1653904915.9,286047010.7,N
1653904935.7,286047009.1,N
1653904955.5,286047011.7,N
1653904975.4,286047013.5,N
1653904995.2,286047016.5,N
1653905015.0,286047023.5,N
1653905015.9,286047023.5,N
1653905035.8,286047026.1,N
1653905055.6,286047029.4,N
1653905075.5,286047030.8,N
1653905095.3,286047032.3,N
1653905115.1,286047033.3,N
1653905135.9,286047033.8,N
1653905155.7,286047035.7,N
1653905175.5,286047035.0,N
1653905195.4,286047036.7,N
1653905215.2,286047039.6,N
1653905235.0,286047038.5,N
1653905236.0,286047038.5,N
1653905255.8,286047040.9,N
1653905275.6,286047040.9,N
1653905295.5,286047044.1,N
1653905315.3,286047045.6,N
1653905335.2,286047047.5,Y
1653905355.9,286047019.8,P
1653905375.7,286047020.4,P
1653905395.6,286047020.4,P
1653905415.4,286047016.1,Y
1653905435.2,286046997.9,P
1653905455.1,286046995.2,N
1653905456.0,286046995.2,N
1653905475.8,286046994.0,N
1653905495.7,286046991.2,N
1653905515.5,286046992.5,N
1653905535.3,286046994.8,N
1653905555.2,286046994.8,N
1653905575.0,286046993.5,N
1653905575.9,286046993.5,N
1653905595.8,286046996.1,N
1653905615.6,286046997.3,N
1653905635.4,286046997.4,N
1653905655.3,286046998.0,N
1653905675.1,286046999.1,N
1653905695.8,286046998.5,N
1653905715.7,286046998.6,N
1653905735.5,286046997.5,N
1653905755.4,286046997.1,N
1653905775.2,286046996.9,N
1653905795.0,286046996.5,N
1653905795.9,286046996.5,N
1653905815.8,286046997.3,N
1653905835.6,286046993.5,N
1653905855.5,286046992.6,N
1653905875.3,286046993.2,N
1653905895.1,286046991.5,N
1653905915.9,286046989.7,N
1653905935.7,286046987.3,N
1653905955.5,286046987.8,N
1653905975.4,286046987.6,Y
1653905995.2,286046989.1,P
1653906015.1,286046991.2,P
1653906016.0,286046991.2,P
1653906035.8,286046990.5,Y
1653906055.6,286047001.7,P
1653906075.5,286047003.7,N
1653906095.3,286047003.8,N
1653906115.2,286047003.6,N
1653906135.9,286047003.8,N
1653906155.7,286047003.7,N
1653906175.6,286047001.6,N
1653906195.4,286047004.3,N
1653906215.2,286047004.4,N
1653906235.1,286047004.0,N
1653906236.0,286047004.0,N
1653906255.8,286047003.2,N
1653906275.7,286047003.1,N
1653906295.5,286047005.6,N
1653906315.3,286047005.2,N
1653906335.2,286047004.8,N
1653906355.9,286047004.5,N
1653906375.7,286047007.3,N
1653906395.6,286047007.6,N
1653906415.4,286047007.5,N
1653906435.2,286047002.5,N
1653906455.1,286047001.8,N
1653906456.0,286047001.8,N
1653906475.8,286047000.0,N
1653906495.7,286046998.2,N
1653906515.5,286047001.1,N
1653906535.3,286046998.7,N
1653906555.2,286046999.6,N
1653906575.0,286046998.8,N
1653906575.9,286046998.8,N
1653906595.8,286046999.0,N
1653906615.6,286046994.9,N
1653906635.4,286046993.3,N
1653906655.3,286046994.8,N
1653906675.1,286046993.9,N
1653906695.8,286046992.1,N
1653906715.7,286046992.8,N
1653906735.5,286046990.9,N
1653906755.4,286046988.5,N
1653906775.2,286046988.7,N
1653906795.0,286046992.7,N
1653906795.9,286046992.7,N
1653906815.8,286046989.7,N
1653906835.6,286046987.2,N
1653906855.4,286046982.7,N
1653906875.3,286046968.4,Y
1653906895.1,286046968.9,P
1653906915.9,286046966.8,N
1653906935.7,286046966.4,N
1653906955.5,286046969.6,N
1653906975.4,286046970.8,N
1653906995.2,286046970.4,N
1653907015.1,286046961.7,Y
1653907016.0,286046961.7,P
1653907035.8,286046986.2,N
1653907055.6,286046980.0,N
1653907075.5,286046969.5,Y
1653907095.3,286046988.8,P
1653907115.2,286046986.8,N
1653907135.9,286046986.3,N
1653907155.7,286046982.6,Y
1653907175.6,286047005.2,P
1653907195.4,286047010.0,N
1653907215.2,286047017.2,N
1653907235.1,286047017.7,N
1653907236.0,286047017.7,N
1653907255.8,286047020.7,N
1653907275.7,286047024.0,N
1653907295.5,286047026.5,N
1653907315.3,286047028.1,N
1653907335.2,286047028.1,N
1653907355.9,286047029.7,N
1653907375.7,286047027.5,N
1653907395.6,286047025.4,N
1653907415.4,286047031.0,N
1653907435.3,286047031.2,N
1653907455.1,286047027.4,N
1653907456.0,286047027.4,N
1653907475.8,286047031.2,N
1653907495.7,286047032.4,N
1653907515.5,286047032.8,N
1653907535.3,286047031.0,N
1653907555.2,286047028.5,N
1653907575.0,286047024.3,N
1653907575.9,286047024.3,N
1653907595.8,286047020.8,N
1653907615.6,286047024.4,N
1653907635.4,286047026.0,N
1653907655.3,286047022.6,N
1653907675.1,286047020.5,N
1653907695.8,286047023.0,N
1653907715.7,286047024.4,Y
1653907735.5,286047000.9,P
1653907755.4,286046992.5,N
1653907775.2,286046991.7,N
1653907795.0,286046993.8,N
1653907795.9,286046993.8,N
1653907815.8,286046993.5,N
1653907835.6,286046991.7,N
1653907855.4,286046985.0,N
1653907875.3,286046971.2,N
1653907895.1,286046970.7,N
1653907915.9,286046976.1,N
1653907935.7,286046977.7,N
1653907955.5,286046981.3,N
1653907975.4,286046973.6,N
1653907995.2,286046965.9,N
1653908015.0,286046964.4,N
1653908015.9,286046964.4,N
1653908035.8,286046966.2,N
1653908055.6,286046973.7,N
1653908075.5,286046972.5,N
1653908095.3,286046975.0,N
1653908115.1,286046975.9,N
1653908135.9,286046979.0,N
1653908155.7,286046981.0,N
1653908175.5,286046982.8,N
1653908195.4,286046984.5,N
1653908215.2,286046986.6,N
1653908235.1,286046986.3,N
1653908236.0,286046986.3,N
1653908255.8,286046986.3,N
1653908275.6,286046984.0,N
1653908295.5,286046984.0,N
1653908315.3,286046984.0,N
1653908335.1,286046983.6,N
1653908355.9,286046983.6,N
1653908375.7,286046983.6,N
1653908395.6,286046983.5,N
